Wind_Speed
11 12 12 13 13 14 15 16 17 18 19 21 23 24 25 25 25 26 29 31 30 31 33 35 34 34 35 36 37 36 36 36 36 37 37 37 37 36 36 36 36 36 35 34 34 33 32 31 29 27 25 26 29 31 31 31 31 32 32 31 31 29 29 37 41 40 39 38 37 37 37 37 37 38
11 11 12 12 12 13 14 15 17 18 19 21 22 23 23 23 23 23 26 31 33 33 33 34 36 37 36 36 37 36 36 36 36 37 38 38 39 39 39 38 38 37 37 37 36 36 36 34 32 29 26 25 27 30 31 31 31 31 33 32 31 31 30 33 39 43 41 39 38 39 39 39 39 39
10 10 10 10 11 13 14 15 16 18 19 21 21 22 22 22 22 22 24 29 32 34 36 36 36 37 38 37 37 37 36 37 37 39 40 40 40 41 41 41 40 39 39 38 38 38 37 36 34 31 28 25 25 27 30 31 31 31 33 34 33 32 31 31 35 43 44 41 40 40 40 40 40 40
9 8 9 10 11 13 14 15 17 18 19 21 22 23 24 23 23 24 24 29 33 34 35 37 38 38 39 39 38 38 39 38 39 41 41 42 42 43 43 43 42 41 41 40 39 38 38 36 35 31 28 26 24 25 28 30 31 31 32 34 34 33 32 30 32 39 45 45 42 41 42 41 41 41
8 9 10 10 12 13 15 16 17 18 19 21 23 24 25 25 25 26 27 30 36 37 35 37 39 38 40 40 38 39 41 41 42 43 43 43 44 44 45 45 44 43 42 41 40 39 37 35 33 29 26 24 23 23 25 27 30 31 31 33 34 35 32 30 30 33 42 47 45 43 44 44 43 42
9 9 10 11 13 14 15 16 17 18 20 22 24 25 27 28 27 28 29 31 36 39 39 39 40 39 39 40 40 40 42 44 45 45 46 46 46 46 45 46 45 44 43 42 41 38 35 33 31 28 24 22 21 21 22 24 27 29 31 32 34 35 33 30 30 30 36 46 48 46 46 46 45 43
9 10 10 12 14 15 15 16 17 19 21 23 25 27 28 29 29 29 30 31 34 39 40 40 40 40 40 40 41 42 43 45 46 47 47 47 47 47 47 46 46 45 43 42 40 37 34 33 32 30 27 25 24 22 21 22 24 26 29 31 32 34 34 32 31 31 32 42 49 49 48 47 46 45
9 10 12 13 14 14 15 17 18 20 22 24 26 28 28 29 30 29 29 30 32 36 39 39 39 40 41 41 42 44 45 46 47 47 47 46 48 48 47 47 47 44 42 41 38 35 34 35 36 36 33 30 28 25 23 23 24 25 28 30 32 34 34 33 33 32 32 38 48 51 51 49 48 47
10 11 12 13 14 15 16 18 20 22 24 26 27 28 29 29 30 30 30 30 31 33 37 39 39 40 41 43 43 44 47 48 49 48 46 46 48 49 49 50 44 37 38 40 36 35 37 38 39 40 36 32 28 25 24 23 24 26 27 30 32 33 34 34 35 35 34 36 44 51 53 52 51 49
11 12 13 13 14 16 17 19 22 24 25 27 28 29 29 30 30 30 30 31 32 33 35 38 40 41 42 44 45 45 46 47 48 50 50 49 49 50 52 50 40 31 34 38 36 37 41 43 42 40 35 29 25 23 22 22 23 25 27 29 32 33 34 35 36 37 37 36 40 47 54 56 55 52
11 12 13 14 15 16 18 21 23 25 26 27 28 29 29 30 30 31 31 31 32 33 35 37 40 42 43 44 46 46 46 44 45 48 51 53 53 52 49 44 38 34 36 38 39 42 44 42 39 35 30 25 21 20 20 20 20 23 25 27 31 33 33 35 36 38 39 38 38 42 51 58 58 55
11 12 13 14 15 17 20 21 23 24 25 26 27 28 29 29 30 31 31 32 33 34 36 38 40 42 43 45 46 47 47 46 47 47 48 51 55 51 45 40 37 37 39 42 44 45 43 39 34 31 27 22 20 19 18 18 18 19 22 25 28 32 33 34 36 39 40 40 38 38 45 55 59 56
11 12 13 14 16 18 19 20 21 23 24 25 27 28 28 29 30 30 31 32 33 35 37 39 40 42 44 46 47 47 46 46 47 48 47 50 52 47 43 42 39 38 42 47 46 43 40 38 35 31 28 24 22 20 17 17 17 18 20 23 26 30 33 34 36 38 40 41 39 37 39 49 58 59
10 11 12 14 15 17 18 19 21 22 22 23 25 26 27 28 29 30 30 31 32 34 36 38 40 42 44 45 45 45 44 44 46 48 48 51 52 47 44 47 45 42 45 48 45 42 39 35 35 35 31 27 25 22 19 17 17 17 19 21 24 28 32 34 35 38 40 41 41 39 37 42 52 59
8 9 11 13 15 16 18 19 20 21 21 21 22 23 25 26 27 28 30 30 31 33 35 37 38 40 42 44 43 43 43 44 45 46 47 50 51 47 45 48 48 45 46 44 43 45 40 30 30 35 34 31 27 24 21 19 18 18 19 20 23 26 31 34 35 37 40 41 42 41 39 39 45 54
7 8 10 12 14 16 17 19 20 20 20 21 22 22 23 24 24 26 27 29 30 31 34 36 37 38 40 42 42 42 43 45 45 46 47 48 48 46 45 46 45 44 43 38 38 45 42 30 30 37 37 33 29 23 21 20 19 20 20 20 22 25 29 34 35 37 39 41 42 42 41 40 42 49
7 8 9 11 13 15 16 18 19 20 21 21 22 22 22 23 24 24 25 26 27 29 31 33 34 35 38 41 42 41 42 44 45 46 47 47 47 46 44 43 43 43 42 36 34 40 39 31 34 41 38 34 32 28 24 21 19 20 21 21 23 24 28 33 36 37 38 41 43 43 43 41 41 44
6 7 8 10 12 14 15 16 18 19 21 22 22 23 23 24 24 25 26 26 27 27 28 30 31 33 36 39 40 41 41 42 44 46 47 46 46 45 44 42 40 39 39 36 33 37 40 35 37 43 41 36 36 33 29 24 20 19 20 21 23 24 26 31 35 37 38 40 42 44 44 43 41 41
6 7 8 9 11 13 15 16 18 19 21 22 23 24 24 25 25 26 27 28 28 28 28 27 28 31 34 37 38 39 39 40 41 42 43 43 43 44 44 43 40 36 37 37 32 36 43 41 39 43 42 38 37 34 29 24 20 18 19 20 22 24 25 29 33 37 38 39 42 44 45 44 42 40
6 7 7 9 11 12 14 15 17 19 20 22 23 24 25 26 26 26 27 27 27 28 28 27 27 29 32 34 37 38 39 40 41 41 42 43 45 46 46 45 43 41 41 40 34 35 43 42 38 41 43 39 37 33 27 22 18 16 17 18 20 21 23 26 31 36 38 38 40 43 45 45 43 41
5 6 7 8 10 12 13 15 17 18 20 22 23 25 26 26 27 28 28 27 27 28 29 28 28 29 31 34 36 38 39 40 42 44 46 47 47 48 46 44 45 44 42 42 38 35 39 40 38 40 43 41 37 33 28 23 19 16 16 16 17 18 20 24 28 34 38 39 39 42 45 45 44 42
4 5 6 8 9 11 13 14 16 18 20 22 23 25 27 27 29 30 30 30 29 29 29 30 31 31 32 35 38 39 40 42 42 44 47 47 47 46 44 43 45 45 42 42 41 38 37 38 37 38 42 44 39 33 29 26 21 17 17 17 17 17 18 21 25 30 35 38 38 40 44 45 44 43
3 4 6 7 9 11 13 14 16 17 19 22 23 25 27 28 29 30 31 32 32 32 32 33 33 34 35 37 40 41 42 43 43 44 45 46 47 46 44 45 46 46 45 44 41 39 37 37 36 35 38 43 42 37 33 28 20 15 15 15 16 17 17 19 23 27 32 35 37 38 41 45 45 43
2 4 5 6 8 10 12 14 16 17 19 21 22 24 26 28 29 29 30 31 32 33 34 34 34 35 36 38 41 42 43 44 45 45 46 46 47 46 45 45 43 43 44 43 41 39 38 37 37 34 32 33 37 38 36 28 17 13 13 13 14 14 15 17 20 24 28 32 34 35 38 43 45 45
2 3 4 6 8 10 12 14 15 16 18 20 21 23 25 26 27 28 29 30 31 32 34 34 35 36 37 39 41 43 45 45 46 47 48 47 46 46 45 46 45 44 44 41 39 38 37 36 38 38 33 29 31 35 35 27 17 12 12 13 14 13 13 15 17 19 23 27 29 32 35 40 44 46
2 3 4 5 7 9 11 13 15 16 17 18 20 21 23 24 26 27 28 29 30 32 34 35 36 37 38 40 42 44 45 46 46 48 48 47 45 45 45 45 46 46 45 40 37 35 35 35 37 38 35 32 32 33 31 26 19 12 10 13 15 14 13 14 16 17 19 21 24 27 32 36 42 46
3 3 4 6 7 9 10 12 14 15 17 18 19 20 22 23 25 26 27 29 30 31 34 36 37 38 39 40 42 44 45 46 46 47 48 47 46 45 44 45 46 45 42 38 35 32 30 31 35 38 34 31 32 32 29 27 23 16 13 15 15 14 13 14 16 17 17 19 21 23 27 33 39 43
4 4 5 6 7 8 10 11 13 15 16 17 18 20 21 23 25 26 27 29 30 31 33 36 37 38 38 39 41 42 43 44 45 45 45 46 46 46 45 45 47 46 43 39 35 31 29 29 32 37 37 33 31 30 27 24 22 20 18 16 14 15 14 13 15 16 16 16 17 20 25 31 37 41
4 4 5 6 7 8 9 11 12 14 16 17 18 19 20 22 24 26 27 29 30 31 33 35 36 37 37 37 38 39 40 41 44 45 46 46 47 47 46 46 46 46 46 44 39 33 31 30 30 35 41 40 35 31 28 25 21 19 18 16 12 11 13 14 16 17 15 14 15 18 23 28 33 38
4 4 5 6 7 8 9 10 12 13 15 16 18 19 20 21 24 26 27 28 30 31 32 33 35 36 36 36 37 38 39 40 43 46 48 49 49 50 50 49 49 48 48 48 45 39 35 34 32 33 40 45 42 36 32 29 24 21 19 16 12 5 7 13 15 13 11 12 14 17 22 26 30 34
5 5 5 6 7 8 9 10 11 12 14 16 17 18 19 20 22 25 26 27 29 30 31 32 33 34 35 36 38 39 39 40 42 44 47 49 51 51 51 52 53 52 51 50 48 44 39 38 37 35 37 45 48 42 35 31 28 25 23 19 15 9 2 6 7 6 6 8 10 13 18 22 26 29
6 6 6 6 6 7 8 9 11 12 13 15 16 18 19 20 21 23 25 26 27 29 30 31 32 33 35 36 38 39 40 40 40 42 45 47 49 51 52 54 54 55 54 53 52 49 44 41 41 38 38 44 51 48 40 36 32 29 26 23 19 14 8 4 6 5 6 8 9 10 14 18 21 24
7 7 7 6 6 7 8 9 10 12 13 14 15 17 19 20 22 23 24 25 27 28 29 30 32 33 34 36 37 39 40 40 39 40 42 45 48 50 52 54 54 54 55 55 54 53 48 44 43 42 40 44 51 52 48 44 38 33 29 28 25 21 16 11 10 7 6 10 11 11 13 16 18 21
9 9 9 8 7 7 8 10 11 12 13 14 15 16 18 20 22 23 24 26 27 28 29 30 31 32 33 35 36 38 39 40 39 39 40 42 46 48 50 52 53 53 54 54 54 53 51 47 46 46 44 44 48 52 52 50 44 37 33 31 29 25 21 16 13 10 8 11 12 12 13 15 17 20
11 11 11 10 9 8 9 10 11 12 13 14 15 16 18 19 21 23 24 25 26 27 28 29 30 31 32 33 35 36 38 39 39 39 39 40 43 45 47 49 52 53 53 53 52 52 51 49 48 50 51 49 50 53 55 55 51 44 38 34 31 28 24 21 18 14 11 11 12 14 15 15 15 18
13 13 13 12 10 9 9 10 10 11 12 13 15 17 18 19 21 22 23 24 25 27 28 29 30 31 32 32 33 34 36 37 39 39 39 39 40 42 44 46 48 50 51 52 51 49 49 48 47 48 50 52 53 52 53 54 54 51 44 38 33 29 27 24 22 20 18 17 15 15 16 16 14 13
14 14 14 14 12 11 11 10 10 11 12 13 14 16 18 19 21 22 22 23 24 25 27 28 29 30 31 31 32 33 34 35 36 38 39 38 37 39 42 44 45 47 49 50 50 49 47 47 46 44 44 46 48 47 47 50 54 55 51 44 37 32 28 25 25 26 26 25 24 22 21 20 18 15
15 15 15 15 14 13 12 11 11 11 11 12 14 16 17 19 21 22 22 22 23 24 25 27 28 29 30 31 32 33 34 34 35 35 37 38 37 37 39 41 42 44 46 48 49 48 47 45 45 43 41 40 40 40 43 48 52 54 54 51 45 38 33 29 27 27 27 27 27 25 24 23 21 19
15 15 15 15 14 14 13 12 12 12 12 12 13 15 17 18 20 21 21 22 22 23 24 25 27 29 30 30 31 32 32 33 34 34 35 36 37 36 35 37 39 40 42 45 47 48 47 45 44 43 40 36 35 35 37 41 44 46 49 52 51 48 43 38 32 28 27 28 27 24 22 22 21 19
15 15 14 14 13 13 13 13 12 12 13 13 13 15 16 17 18 19 20 21 21 21 22 24 26 27 29 30 31 31 31 31 32 33 33 34 35 35 34 34 36 37 39 41 44 46 46 44 42 41 39 36 34 34 35 36 39 43 46 48 50 51 50 47 42 37 33 31 29 26 23 21 19 17
14 13 12 12 12 12 13 13 13 13 13 14 14 14 15 16 16 17 19 20 20 20 21 23 25 26 28 29 30 31 31 31 31 31 31 32 33 34 33 32 33 35 36 37 39 41 42 42 40 38 36 34 33 34 37 39 40 42 43 44 46 47 48 49 49 46 41 36 34 33 32 30 26 23
12 12 10 10 12 13 14 15 15 15 15 14 14 14 14 14 14 15 17 18 19 20 20 21 23 26 27 28 29 29 30 30 30 30 30 31 32 33 33 32 31 32 33 34 35 36 37 38 39 38 37 35 35 38 40 41 40 39 39 40 41 43 44 46 48 48 46 43 40 39 38 37 36 34
11 11 11 11 13 14 16 17 18 17 16 15 14 14 14 13 13 14 15 17 19 20 20 21 22 25 27 28 29 29 28 29 29 29 29 29 30 31 32 31 30 29 29 30 31 32 34 36 38 39 39 39 38 37 38 38 38 38 37 37 37 39 40 42 43 45 47 47 45 43 41 39 39 38
12 12 12 12 13 15 17 18 18 16 15 14 14 13 13 13 13 14 15 17 18 19 20 21 22 24 26 28 29 29 28 28 28 28 28 27 27 28 30 30 30 29 28 28 29 30 32 33 35 37 39 39 38 36 36 35 36 36 36 36 37 37 37 38 39 41 43 45 44 42 40 39 37 34
14 14 14 14 15 16 17 17 16 14 13 13 13 12 12 13 14 15 16 17 19 19 20 22 23 24 25 28 29 30 29 28 26 26 26 26 26 26 27 29 29 29 29 28 28 29 30 31 32 34 35 36 36 35 34 33 32 33 34 35 36 36 36 36 36 37 39 39 37 36 36 36 34 32
Wind_Direction
35 31 28 23 19 18 15 11 9 9 9 8 7 6 5 4 0 355 352 353 357 359 357 355 356 358 356 353 352 351 349 348 346 344 344 342 340 340 339 338 337 336 337 337 335 333 332 328 322 313 300 289 285 284 281 275 269 262 260 260 258 259 248 228 216 214 217 219 223 226 225 225 225 223
39 32 26 20 17 15 14 12 11 10 10 10 9 7 5 3 1 355 346 345 350 353 354 354 351 352 354 352 349 349 348 347 346 343 342 341 339 338 338 338 338 337 337 337 336 333 331 328 323 315 304 290 280 278 279 276 271 265 260 258 256 256 254 240 221 214 214 214 217 223 224 224 225 223
39 29 23 17 16 17 15 12 11 11 10 9 8 8 7 3 359 353 342 338 347 350 348 350 352 349 349 350 348 347 347 346 345 343 342 340 338 337 337 337 337 337 337 336 335 333 329 326 322 316 307 295 280 272 273 273 271 267 260 257 256 254 254 250 232 217 213 212 214 220 223 223 224 223
37 25 21 17 17 19 16 13 12 11 10 9 8 7 7 4 357 353 345 335 342 351 348 346 350 348 346 348 348 346 345 345 344 343 341 339 338 337 336 336 336 336 335 334 333 331 327 324 321 316 309 299 286 272 267 268 268 266 262 257 255 254 253 253 245 226 216 213 213 217 222 223 223 222
35 25 22 19 20 20 17 13 10 9 9 9 9 6 4 4 359 353 348 339 339 347 351 347 348 349 346 346 349 347 345 345 343 342 341 339 337 336 335 334 334 334 333 332 331 328 325 323 320 317 311 302 292 278 267 265 264 262 261 257 254 254 252 249 249 237 222 215 213 215 220 222 223 222
35 28 25 22 23 21 15 11 8 8 10 8 9 7 3 3 2 355 350 343 338 342 348 349 348 348 347 346 349 348 345 344 343 341 340 338 337 335 334 334 333 332 331 330 329 327 324 325 323 320 316 309 301 288 274 266 264 260 258 256 252 252 250 245 246 243 228 218 214 215 219 221 221 221
36 30 26 23 22 18 11 9 9 9 11 8 7 7 4 1 2 359 352 346 340 339 344 348 347 347 348 348 349 348 346 344 342 340 339 338 336 335 334 333 332 331 330 329 328 328 328 329 329 325 321 316 308 297 283 271 266 261 256 253 250 248 247 242 242 244 232 220 216 216 218 221 222 221
36 30 27 23 18 14 9 8 11 11 10 9 7 5 4 1 360 358 354 349 344 340 341 346 347 347 348 349 350 349 346 343 341 339 338 337 336 336 335 333 331 330 331 330 329 330 330 329 329 327 323 319 312 303 291 277 268 262 256 252 248 245 244 239 237 241 234 221 218 217 217 219 221 221
33 28 24 20 14 10 9 10 12 12 10 8 7 4 2 1 359 357 355 351 348 344 342 344 347 349 349 349 350 350 346 342 340 338 338 338 337 336 335 333 332 330 331 333 333 331 330 327 325 325 324 320 315 307 297 283 270 262 256 252 248 244 242 237 233 236 235 224 220 218 216 217 220 222
29 25 19 15 11 9 11 13 12 11 9 7 5 3 1 359 358 356 355 353 350 347 346 347 348 350 351 349 349 350 347 343 341 339 338 338 339 339 337 336 335 332 331 336 336 331 327 324 323 324 325 322 316 309 300 288 274 264 257 252 249 244 241 236 231 232 234 229 223 219 216 215 217 220
25 21 15 10 10 11 13 13 11 8 8 7 5 2 359 358 357 356 355 354 352 350 350 351 351 351 351 350 348 347 346 344 343 343 340 339 340 341 339 336 334 334 335 336 333 328 326 326 327 328 327 323 316 310 301 291 279 268 259 252 248 246 242 237 231 229 232 232 228 222 217 215 215 219
22 17 12 8 9 14 14 12 9 6 5 5 5 2 359 357 357 357 356 354 353 353 353 354 353 351 351 350 348 347 347 346 345 346 343 339 339 341 338 335 334 336 338 335 330 329 331 332 334 334 331 328 322 313 303 293 283 270 261 254 248 245 243 238 233 229 230 232 230 226 221 216 213 216
20 14 10 9 9 12 12 8 7 7 6 4 4 2 360 358 358 357 356 355 355 355 356 356 355 352 351 350 349 349 349 347 344 345 345 340 339 339 336 336 337 338 338 334 329 333 338 336 336 336 333 331 327 317 307 298 289 275 263 255 247 244 243 239 234 230 228 230 230 228 224 217 213 213
17 12 8 9 9 9 8 6 7 9 9 7 6 4 1 360 358 356 356 357 357 357 357 358 356 352 350 351 352 352 350 347 346 346 345 342 341 340 337 337 338 339 338 333 330 338 343 337 336 338 336 332 328 319 310 302 293 281 268 258 248 243 241 240 237 232 228 228 229 229 227 220 214 212
13 10 7 7 8 7 6 6 7 9 10 9 8 7 5 3 360 358 357 358 359 358 358 358 357 353 351 352 354 354 351 350 349 348 347 345 343 342 339 337 336 337 338 334 330 338 344 337 333 340 342 338 331 321 313 304 294 285 273 260 251 243 239 239 238 234 230 227 227 228 227 223 217 213
10 5 4 5 5 4 5 6 8 10 11 11 9 8 7 6 5 3 0 360 1 1 359 358 358 356 354 355 357 357 354 352 350 349 349 349 346 342 339 336 333 334 338 335 327 332 339 338 333 338 342 341 334 326 316 305 294 286 276 263 254 244 239 238 237 235 232 228 226 227 227 225 221 215
4 359 359 1 1 1 4 7 8 9 11 11 10 9 7 8 8 7 5 4 4 4 1 358 358 359 359 358 359 360 357 354 352 350 350 350 347 341 339 337 334 336 341 338 327 327 335 339 335 335 338 339 336 331 324 314 300 288 279 268 258 247 238 237 236 234 233 229 227 225 225 226 224 219
355 352 353 355 356 358 3 7 9 10 10 9 9 9 8 8 8 8 8 8 8 8 6 2 359 1 2 1 1 1 360 357 354 352 351 351 347 342 342 341 338 339 345 344 333 328 333 338 337 335 336 335 333 332 329 322 309 292 281 273 265 254 241 235 235 234 232 230 227 225 224 226 225 222
347 344 347 350 351 355 1 6 9 9 8 7 7 8 8 7 8 9 10 10 10 10 10 7 1 360 1 3 3 3 3 1 358 356 355 353 350 347 347 346 342 343 349 351 341 328 330 337 338 335 334 330 328 332 336 329 314 297 285 277 271 263 249 237 233 234 233 230 227 225 224 225 225 224
337 338 343 346 348 352 359 4 8 8 6 5 5 6 7 7 6 9 11 12 11 12 12 10 5 1 0 2 4 6 6 4 1 1 0 358 356 353 350 347 345 347 352 355 348 330 329 336 338 335 334 330 326 331 341 338 320 302 291 283 277 271 259 244 234 232 233 231 227 225 223 223 225 225
326 332 340 343 345 351 357 3 6 6 4 4 4 4 5 5 5 7 9 10 12 14 14 12 9 5 3 3 5 8 10 9 6 5 3 1 360 356 350 346 346 348 352 355 349 335 329 333 335 335 334 331 327 329 336 339 327 303 287 282 278 274 265 251 238 232 232 231 227 225 223 222 223 225
318 328 337 340 344 351 357 2 5 5 3 2 2 2 3 3 4 5 5 6 10 13 15 14 13 11 8 6 6 9 12 12 11 9 7 4 1 357 352 348 347 348 353 356 351 340 333 334 337 336 332 330 331 331 329 332 331 309 286 276 274 273 269 258 243 233 231 232 229 225 222 221 221 223
312 328 333 336 344 352 356 360 3 4 3 1 360 360 360 1 3 4 3 4 6 9 13 14 14 13 12 9 8 10 12 14 15 14 11 9 5 0 356 354 352 349 351 356 355 346 341 343 345 343 335 329 328 329 325 324 331 323 296 280 276 275 273 266 252 238 232 231 229 225 222 220 219 221
310 321 326 334 347 353 355 358 1 2 1 359 358 358 359 0 1 1 2 4 5 7 10 13 13 13 12 11 10 10 12 15 16 16 15 13 10 6 1 0 358 352 350 356 359 352 348 349 348 345 340 328 320 323 326 326 331 330 306 288 284 279 271 268 260 247 237 234 230 225 222 220 219 220
309 308 320 336 349 353 353 356 359 0 360 358 357 357 358 359 358 357 359 2 5 6 8 11 12 13 12 11 11 11 11 14 16 17 17 16 15 13 8 4 1 358 356 360 3 357 351 351 349 346 344 335 322 323 330 334 336 326 303 291 289 280 266 263 260 252 243 238 232 226 221 218 218 219
294 300 322 341 350 352 353 355 356 358 358 356 355 357 358 358 357 356 358 0 4 6 7 9 11 12 11 11 11 11 11 12 14 16 17 17 17 18 17 12 7 3 1 3 5 1 355 353 354 353 349 341 335 334 336 341 343 324 288 285 289 281 268 261 255 250 244 238 233 227 221 218 218 219
289 306 330 343 347 350 353 354 354 356 355 354 354 356 357 358 357 357 358 1 4 6 7 8 10 10 10 10 11 11 11 11 13 14 15 16 17 18 20 20 15 10 7 7 7 4 1 358 360 4 0 348 346 348 344 343 345 332 300 290 283 267 262 262 255 250 247 240 234 227 220 217 218 218
293 313 333 341 344 348 351 353 354 355 354 353 354 355 357 358 358 358 360 2 5 7 8 9 9 9 9 9 10 12 11 10 12 14 14 16 16 16 19 22 21 17 15 14 12 9 8 5 3 9 12 6 1 1 354 347 349 343 325 309 280 253 251 255 249 244 246 247 242 229 219 216 216 217
291 312 331 338 341 347 350 353 355 356 355 355 355 356 358 359 360 1 2 3 5 8 9 9 7 7 8 8 9 12 12 12 12 13 15 16 17 17 17 20 23 22 20 19 18 16 16 14 10 11 16 17 17 15 10 5 7 4 350 333 303 262 241 238 239 239 239 244 241 227 219 217 216 217
289 308 327 334 338 345 350 353 356 358 359 359 358 358 360 1 2 3 4 4 5 7 9 9 7 6 6 6 9 12 13 14 13 13 14 16 18 18 17 17 20 23 23 22 21 21 22 23 22 19 17 19 24 26 23 19 21 22 15 2 348 313 242 239 244 241 238 242 236 223 218 218 218 218
289 300 316 327 333 340 347 352 355 357 360 1 0 360 1 2 4 5 5 5 5 6 8 8 7 6 6 6 8 11 14 15 15 15 15 17 18 19 18 17 16 19 22 23 24 25 26 27 28 27 23 22 25 29 31 30 29 29 29 27 27 30 331 254 237 218 223 233 227 219 218 219 218 217
288 295 306 317 323 332 341 347 351 356 359 1 2 2 2 3 4 4 5 6 6 6 7 8 8 7 7 7 7 9 12 15 15 15 16 17 18 19 20 18 16 15 18 21 23 25 28 30 31 31 29 27 27 28 33 37 34 32 35 39 43 48 54 102 141 167 211 211 204 209 212 211 211 212
283 290 298 306 313 322 331 338 346 352 356 1 5 6 4 4 5 5 5 6 7 6 6 7 8 8 7 7 7 8 10 13 15 16 16 17 18 20 21 20 18 16 17 18 20 22 25 31 35 34 32 32 30 29 32 35 34 34 38 41 46 51 57 82 112 134 178 187 193 205 201 195 198 203
276 283 289 295 302 310 320 330 340 347 353 359 4 7 7 6 6 7 7 6 6 6 5 5 7 8 8 8 8 8 8 10 13 15 16 17 18 20 21 21 20 18 18 18 19 20 21 26 33 36 35 35 35 33 33 33 32 34 39 43 49 54 56 67 90 110 138 160 177 190 186 183 189 194
272 279 284 288 294 302 311 322 331 339 347 353 356 1 5 5 4 4 5 6 6 5 5 5 6 7 8 8 8 8 7 7 9 12 15 17 18 19 20 21 21 20 19 19 20 21 20 22 28 34 35 35 36 36 36 35 32 32 37 41 47 55 60 67 79 94 110 127 149 168 169 168 178 188
270 275 279 283 290 296 303 314 323 331 339 345 348 352 356 358 359 358 359 2 3 3 3 3 4 6 7 7 8 9 8 7 7 8 12 15 17 17 18 20 21 21 21 20 20 22 23 23 27 31 32 32 33 33 33 34 34 34 35 37 39 47 56 65 75 87 94 98 110 128 133 131 138 158
269 272 276 281 287 292 298 306 313 320 328 336 340 343 346 349 351 352 352 354 358 360 0 1 2 3 4 5 6 8 9 8 7 6 7 11 15 16 15 16 19 22 22 21 20 22 23 25 28 32 31 30 30 28 28 33 37 39 39 38 38 41 47 55 64 73 78 82 87 96 103 106 110 115
272 273 275 280 286 290 294 300 305 310 318 327 333 336 339 342 345 346 347 349 352 355 357 358 359 1 2 2 3 5 7 9 8 7 6 6 10 14 15 14 15 19 22 22 21 22 23 25 29 33 34 32 29 28 29 32 37 39 41 41 42 43 44 48 55 61 67 72 75 79 84 89 92 94
276 277 278 281 286 289 291 296 301 305 310 318 325 330 334 338 341 343 345 347 349 351 354 356 357 358 359 360 1 2 4 6 8 8 6 5 5 9 13 14 14 16 20 22 22 22 22 24 28 33 36 36 35 35 35 35 37 39 41 43 45 45 46 49 53 58 65 70 72 76 80 84 85 88
277 278 280 283 287 289 292 295 299 302 306 312 318 323 328 333 337 340 344 347 349 351 353 354 356 356 356 357 358 359 1 3 6 7 7 6 5 5 8 12 14 14 17 21 23 22 22 23 26 30 35 37 39 40 41 41 41 43 44 44 45 45 46 49 52 54 58 65 73 78 81 82 83 89
276 279 283 287 290 292 294 296 298 300 304 309 313 316 321 327 331 336 341 346 348 350 352 353 354 354 354 354 355 357 358 360 3 6 7 7 7 6 5 8 13 15 16 19 22 23 22 22 23 27 31 34 36 38 40 40 40 42 44 44 45 45 46 48 50 52 53 59 67 71 72 74 76 78
272 279 287 294 295 294 293 293 294 296 300 305 308 310 314 319 325 330 337 342 345 346 348 351 352 352 352 352 352 354 355 357 359 2 4 5 6 7 6 6 9 13 16 18 20 22 23 23 23 25 27 29 32 36 39 39 38 39 41 42 44 46 46 47 48 50 51 54 57 59 61 64 66 65
270 279 288 295 296 294 291 289 289 291 295 299 303 306 308 311 318 325 331 337 341 342 343 345 348 349 349 350 351 351 352 354 356 358 1 2 2 3 5 6 6 8 12 16 19 20 21 23 24 25 26 28 31 35 39 40 38 38 38 39 42 45 47 48 49 50 50 50 51 51 52 55 58 57
271 279 286 292 294 293 291 288 286 287 290 294 297 301 302 303 309 318 326 331 335 337 338 340 343 345 346 347 349 350 350 351 353 355 358 358 358 358 0 3 5 5 6 10 14 17 20 22 23 25 26 28 29 32 35 38 39 39 38 39 40 42 44 46 48 50 51 50 49 49 50 53 56 57
270 276 281 287 291 293 293 290 284 281 283 287 290 293 295 297 303 313 320 324 325 327 329 332 335 338 340 342 344 347 348 349 350 352 354 356 356 356 356 359 2 4 4 4 7 12 16 19 21 24 27 29 29 31 33 36 38 39 39 40 40 40 41 43 45 48 52 52 51 51 52 55 58 60
Height
1553 1553 1552 1552 1552 1551 1551 1551 1550 1550 1548 1547 1545 1544 1542 1541 1539 1537 1535 1532 1530 1530 1527 1524 1522 1522 1520 1516 1514 1512 1509 1506 1503 1499 1497 1494 1491 1488 1486 1483 1480 1477 1474 1471 1468 1466 1463 1461 1458 1456 1454 1452 1450 1448 1447 1447 1447 1447 1447 1447 1447 1448 1449 1450 1453 1456 1458 1461 1465 1468 1470 1472 1475 1478
1553 1553 1553 1552 1552 1552 1552 1551 1551 1550 1548 1547 1546 1544 1543 1542 1540 1539 1536 1532 1529 1528 1527 1525 1521 1519 1518 1515 1513 1510 1508 1505 1502 1498 1495 1492 1488 1485 1483 1480 1477 1474 1470 1467 1464 1461 1459 1456 1454 1452 1449 1447 1445 1443 1442 1442 1442 1442 1442 1442 1443 1444 1445 1446 1448 1451 1453 1456 1460 1463 1466 1468 1471 1474
1554 1554 1554 1553 1553 1553 1552 1552 1551 1550 1549 1548 1546 1545 1544 1542 1540 1539 1537 1533 1530 1528 1525 1523 1522 1518 1516 1514 1511 1508 1506 1503 1500 1497 1493 1489 1486 1483 1479 1477 1473 1470 1467 1463 1460 1457 1454 1451 1449 1446 1444 1442 1441 1439 1437 1437 1437 1438 1437 1437 1439 1439 1440 1442 1443 1445 1448 1451 1454 1458 1461 1464 1467 1469
1555 1555 1554 1554 1553 1553 1553 1552 1551 1550 1549 1548 1547 1545 1544 1542 1540 1538 1536 1532 1529 1528 1526 1522 1520 1517 1514 1511 1509 1505 1503 1501 1498 1494 1491 1487 1483 1479 1476 1473 1469 1466 1462 1459 1456 1453 1450 1447 1444 1441 1439 1437 1436 1434 1433 1432 1432 1433 1433 1433 1434 1435 1436 1437 1438 1440 1443 1446 1449 1453 1457 1460 1462 1465
1556 1555 1555 1554 1554 1554 1553 1552 1551 1550 1549 1548 1547 1545 1543 1542 1540 1537 1535 1532 1527 1525 1525 1522 1518 1516 1512 1509 1507 1503 1499 1497 1494 1491 1487 1484 1480 1476 1472 1468 1465 1462 1458 1455 1452 1449 1446 1442 1439 1436 1434 1432 1431 1430 1428 1427 1427 1427 1428 1428 1429 1430 1431 1433 1434 1435 1438 1441 1444 1448 1452 1455 1458 1461
1556 1556 1555 1555 1554 1554 1553 1552 1551 1550 1549 1548 1546 1545 1543 1541 1540 1537 1534 1531 1526 1522 1521 1519 1516 1514 1511 1507 1504 1501 1497 1493 1490 1487 1484 1480 1477 1473 1469 1464 1460 1457 1454 1451 1448 1445 1441 1438 1435 1432 1430 1428 1426 1425 1424 1423 1422 1422 1422 1423 1423 1424 1426 1428 1430 1431 1433 1436 1440 1443 1446 1450 1454 1457
1557 1556 1556 1555 1554 1554 1553 1553 1552 1550 1549 1547 1546 1544 1543 1540 1539 1538 1535 1531 1527 1522 1519 1517 1514 1511 1509 1505 1502 1499 1495 1491 1487 1484 1480 1477 1473 1469 1465 1461 1457 1454 1451 1447 1443 1440 1436 1433 1430 1427 1425 1423 1422 1420 1419 1418 1417 1417 1417 1417 1418 1419 1421 1424 1426 1426 1428 1431 1435 1438 1441 1445 1449 1452
1557 1557 1556 1555 1555 1554 1554 1553 1551 1550 1548 1547 1545 1543 1542 1540 1538 1537 1535 1532 1528 1523 1518 1516 1514 1510 1507 1504 1500 1496 1492 1489 1486 1482 1478 1474 1470 1465 1461 1457 1452 1449 1446 1443 1438 1435 1432 1429 1426 1423 1420 1418 1417 1415 1414 1413 1412 1412 1412 1412 1412 1413 1415 1418 1421 1422 1423 1426 1429 1433 1436 1440 1444 1447
1558 1557 1556 1556 1555 1554 1554 1552 1551 1550 1548 1546 1545 1543 1541 1540 1538 1536 1534 1531 1528 1524 1519 1515 1513 1510 1505 1502 1499 1495 1490 1485 1481 1478 1475 1472 1467 1461 1456 1453 1448 1444 1441 1438 1435 1431 1427 1424 1421 1419 1416 1413 1412 1410 1409 1408 1407 1407 1406 1406 1407 1408 1410 1412 1416 1417 1418 1421 1424 1427 1431 1435 1439 1442
1558 1557 1556 1556 1555 1554 1553 1552 1550 1549 1548 1546 1544 1543 1541 1539 1537 1535 1533 1530 1527 1524 1520 1515 1511 1508 1504 1500 1496 1494 1490 1484 1478 1472 1468 1466 1463 1458 1451 1446 1444 1442 1438 1435 1431 1427 1422 1419 1417 1414 1411 1409 1407 1405 1404 1402 1402 1402 1401 1402 1402 1403 1404 1407 1410 1412 1413 1415 1418 1421 1425 1430 1434 1437
1558 1558 1557 1556 1556 1555 1553 1551 1550 1549 1547 1546 1545 1543 1541 1539 1537 1534 1532 1529 1526 1523 1519 1515 1511 1506 1503 1499 1495 1492 1488 1484 1479 1472 1464 1458 1456 1454 1448 1442 1439 1438 1435 1432 1427 1423 1419 1415 1412 1409 1407 1404 1403 1401 1399 1398 1397 1397 1397 1397 1398 1399 1400 1401 1404 1407 1409 1410 1413 1416 1419 1423 1427 1432
1558 1558 1558 1557 1556 1555 1553 1552 1551 1549 1548 1546 1545 1543 1541 1538 1536 1533 1531 1528 1525 1522 1518 1514 1510 1506 1502 1498 1494 1489 1485 1479 1475 1472 1467 1459 1452 1449 1446 1441 1438 1435 1432 1428 1422 1417 1414 1411 1407 1404 1402 1400 1398 1396 1395 1394 1393 1392 1392 1392 1393 1394 1395 1396 1399 1401 1404 1405 1408 1411 1414 1417 1421 1426
1559 1558 1558 1557 1556 1554 1554 1553 1552 1550 1549 1547 1545 1543 1541 1538 1535 1533 1530 1527 1524 1520 1517 1513 1509 1505 1501 1497 1492 1487 1483 1479 1474 1470 1466 1459 1451 1447 1444 1439 1437 1434 1430 1425 1417 1412 1411 1408 1403 1400 1398 1395 1394 1392 1391 1390 1389 1388 1388 1387 1388 1389 1390 1391 1393 1396 1398 1401 1403 1406 1408 1411 1415 1419
1559 1559 1558 1557 1556 1555 1554 1553 1552 1551 1550 1548 1546 1544 1541 1538 1535 1532 1530 1527 1523 1520 1516 1513 1509 1504 1500 1497 1492 1488 1484 1480 1475 1469 1463 1456 1449 1445 1441 1436 1433 1432 1428 1422 1413 1407 1408 1406 1400 1396 1394 1392 1390 1388 1387 1386 1385 1384 1384 1383 1383 1384 1385 1387 1388 1390 1393 1396 1398 1401 1403 1406 1409 1413
1560 1559 1558 1557 1557 1556 1555 1554 1553 1552 1551 1549 1547 1545 1543 1540 1536 1533 1529 1526 1524 1520 1517 1513 1510 1505 1501 1497 1493 1488 1483 1479 1474 1468 1462 1456 1448 1444 1440 1434 1430 1429 1427 1421 1411 1403 1404 1404 1399 1394 1392 1389 1387 1385 1383 1382 1380 1379 1379 1379 1379 1379 1380 1382 1384 1385 1388 1391 1393 1396 1399 1401 1404 1407
1560 1559 1559 1558 1557 1556 1555 1554 1553 1552 1551 1549 1547 1546 1544 1541 1538 1535 1531 1527 1524 1521 1517 1514 1511 1507 1502 1497 1493 1488 1482 1477 1473 1467 1462 1457 1450 1446 1443 1437 1431 1427 1425 1420 1412 1403 1401 1401 1397 1392 1389 1386 1384 1382 1380 1378 1376 1375 1374 1374 1374 1375 1375 1377 1379 1380 1383 1385 1388 1391 1394 1397 1399 1402
1560 1559 1559 1558 1557 1557 1556 1555 1554 1552 1551 1549 1548 1546 1544 1542 1539 1536 1533 1530 1526 1522 1519 1515 1512 1508 1503 1498 1494 1489 1483 1477 1471 1466 1461 1457 1452 1447 1443 1438 1432 1426 1422 1418 1411 1403 1399 1399 1395 1390 1387 1383 1380 1378 1376 1374 1372 1371 1370 1369 1369 1369 1370 1372 1373 1375 1377 1380 1383 1387 1390 1392 1395 1398
1560 1559 1559 1558 1558 1557 1556 1555 1554 1552 1550 1549 1547 1545 1543 1541 1539 1536 1533 1530 1527 1524 1520 1516 1513 1510 1505 1500 1495 1490 1485 1479 1472 1466 1460 1456 1452 1447 1441 1436 1430 1425 1421 1416 1409 1401 1397 1397 1393 1387 1384 1381 1377 1375 1373 1370 1369 1367 1365 1365 1364 1364 1365 1367 1368 1370 1372 1375 1378 1382 1385 1388 1391 1393
1560 1559 1559 1558 1558 1557 1556 1555 1554 1552 1550 1548 1547 1545 1543 1540 1538 1535 1532 1529 1526 1523 1520 1517 1514 1510 1506 1502 1497 1491 1486 1480 1475 1469 1463 1458 1453 1446 1439 1433 1429 1425 1421 1416 1409 1401 1395 1395 1391 1385 1381 1378 1374 1372 1369 1367 1365 1363 1362 1361 1360 1360 1361 1362 1363 1365 1367 1370 1373 1376 1380 1384 1387 1389
1560 1559 1559 1558 1558 1557 1556 1555 1554 1552 1550 1548 1546 1544 1542 1540 1538 1535 1532 1530 1527 1523 1521 1518 1515 1511 1507 1503 1498 1493 1487 1481 1475 1469 1464 1457 1450 1443 1436 1430 1426 1422 1418 1415 1410 1402 1395 1393 1390 1383 1379 1376 1372 1369 1367 1365 1362 1361 1359 1358 1357 1357 1357 1357 1359 1360 1362 1365 1368 1371 1375 1379 1382 1386
1559 1559 1558 1558 1558 1557 1556 1555 1553 1552 1550 1548 1546 1544 1542 1539 1537 1534 1532 1530 1527 1524 1521 1518 1515 1512 1508 1503 1499 1493 1487 1481 1474 1467 1460 1454 1448 1441 1435 1429 1424 1421 1417 1413 1409 1403 1395 1391 1388 1382 1376 1373 1370 1366 1363 1362 1361 1359 1357 1356 1354 1353 1353 1353 1354 1356 1357 1360 1363 1366 1370 1375 1378 1382
1559 1558 1558 1558 1557 1556 1555 1554 1553 1551 1549 1547 1545 1543 1541 1538 1535 1532 1530 1528 1525 1523 1520 1517 1514 1511 1506 1502 1497 1492 1487 1481 1474 1467 1461 1455 1449 1442 1437 1431 1424 1419 1415 1412 1407 1401 1395 1391 1387 1381 1373 1368 1366 1365 1362 1359 1359 1357 1355 1353 1352 1351 1350 1350 1351 1352 1353 1355 1358 1362 1366 1370 1374 1377
1558 1558 1558 1558 1557 1556 1555 1554 1552 1551 1549 1547 1545 1542 1540 1537 1534 1531 1528 1525 1523 1520 1518 1515 1512 1508 1505 1501 1496 1491 1486 1481 1475 1470 1464 1457 1450 1444 1439 1433 1424 1417 1412 1410 1406 1400 1394 1390 1386 1382 1374 1365 1360 1360 1359 1357 1355 1354 1353 1351 1350 1350 1349 1348 1348 1348 1349 1351 1354 1357 1362 1366 1370 1373
1558 1558 1558 1557 1556 1556 1554 1553 1552 1550 1549 1547 1544 1542 1539 1536 1533 1531 1528 1525 1522 1519 1516 1513 1510 1507 1503 1500 1495 1490 1485 1480 1475 1470 1465 1458 1452 1446 1440 1435 1429 1423 1416 1411 1407 1401 1395 1390 1386 1383 1380 1371 1362 1356 1355 1354 1353 1352 1351 1350 1349 1348 1347 1346 1345 1346 1346 1347 1350 1353 1358 1362 1366 1369
1557 1558 1557 1557 1556 1555 1554 1553 1551 1550 1548 1547 1544 1542 1539 1536 1534 1531 1528 1526 1523 1520 1516 1513 1510 1506 1503 1499 1494 1489 1484 1480 1475 1470 1464 1459 1454 1449 1442 1435 1430 1426 1420 1413 1408 1402 1396 1391 1386 1381 1378 1373 1366 1358 1353 1350 1350 1350 1349 1348 1347 1346 1345 1344 1343 1343 1344 1345 1347 1350 1354 1358 1362 1365
1557 1557 1557 1556 1556 1555 1553 1552 1551 1549 1548 1546 1545 1542 1540 1537 1535 1532 1529 1526 1523 1519 1516 1512 1509 1505 1501 1497 1493 1488 1484 1479 1475 1470 1465 1461 1456 1451 1446 1439 1432 1427 1421 1415 1410 1404 1398 1393 1388 1381 1375 1371 1365 1359 1354 1349 1347 1347 1347 1346 1345 1344 1343 1342 1342 1342 1342 1343 1345 1348 1351 1355 1359 1362
1556 1556 1556 1555 1555 1554 1553 1552 1550 1549 1547 1546 1544 1542 1540 1537 1535 1532 1529 1526 1523 1519 1516 1512 1508 1504 1500 1497 1492 1488 1484 1480 1475 1471 1466 1462 1457 1452 1448 1442 1437 1431 1425 1417 1411 1406 1401 1395 1390 1384 1378 1371 1365 1359 1354 1350 1347 1345 1345 1345 1343 1342 1341 1341 1341 1341 1342 1342 1343 1346 1350 1353 1356 1360
1556 1555 1555 1555 1554 1553 1552 1551 1550 1548 1547 1545 1544 1542 1539 1537 1534 1532 1529 1526 1522 1519 1516 1512 1508 1504 1501 1497 1493 1490 1486 1482 1478 1474 1469 1464 1458 1453 1448 1443 1438 1433 1427 1420 1413 1407 1402 1397 1392 1386 1380 1374 1368 1361 1356 1352 1349 1346 1343 1341 1340 1340 1340 1340 1339 1340 1340 1341 1342 1345 1347 1350 1353 1357
1555 1555 1554 1554 1554 1553 1552 1551 1549 1548 1546 1545 1543 1541 1539 1536 1534 1531 1528 1525 1522 1519 1515 1512 1509 1506 1502 1499 1496 1492 1489 1484 1479 1474 1469 1464 1459 1453 1448 1444 1439 1434 1428 1421 1414 1409 1403 1398 1393 1387 1381 1376 1371 1365 1359 1354 1350 1347 1344 1340 1338 1339 1339 1338 1338 1338 1338 1339 1341 1342 1345 1347 1351 1354
1554 1554 1553 1553 1553 1552 1551 1550 1549 1547 1546 1544 1542 1540 1538 1536 1534 1531 1528 1525 1522 1519 1516 1513 1510 1507 1503 1500 1497 1494 1490 1485 1479 1474 1469 1463 1458 1452 1446 1441 1437 1434 1429 1422 1416 1410 1404 1399 1393 1388 1383 1378 1372 1367 1362 1357 1352 1348 1345 1341 1338 1338 1338 1337 1336 1337 1337 1338 1339 1341 1343 1346 1349 1352
1553 1553 1552 1552 1552 1551 1551 1550 1548 1547 1545 1544 1542 1540 1538 1536 1534 1531 1528 1526 1523 1520 1517 1514 1511 1508 1505 1501 1497 1493 1489 1485 1480 1476 1470 1464 1459 1453 1447 1441 1436 1432 1428 1424 1418 1412 1406 1400 1394 1389 1385 1379 1373 1368 1363 1358 1353 1349 1346 1343 1341 1340 1339 1337 1336 1337 1337 1338 1339 1340 1342 1344 1347 1350
1552 1551 1551 1551 1551 1551 1550 1549 1548 1547 1545 1543 1542 1540 1538 1536 1534 1531 1529 1527 1524 1521 1518 1515 1512 1508 1505 1501 1496 1492 1489 1485 1481 1477 1472 1467 1462 1456 1450 1443 1437 1432 1427 1422 1418 1414 1409 1403 1397 1391 1387 1382 1376 1371 1365 1359 1355 1352 1349 1346 1344 1342 1340 1338 1337 1338 1338 1339 1339 1340 1341 1343 1346 1349
1550 1550 1550 1550 1550 1549 1549 1548 1547 1546 1544 1543 1541 1539 1537 1536 1533 1531 1529 1526 1524 1521 1518 1515 1512 1508 1505 1501 1497 1493 1489 1486 1482 1478 1474 1469 1464 1459 1453 1447 1442 1436 1429 1424 1419 1415 1411 1407 1401 1395 1390 1386 1380 1374 1367 1361 1359 1356 1353 1350 1347 1344 1342 1340 1339 1339 1340 1340 1341 1341 1341 1343 1345 1348
1549 1549 1549 1548 1548 1548 1548 1547 1546 1545 1543 1542 1540 1539 1537 1535 1533 1531 1529 1526 1523 1521 1518 1515 1512 1508 1505 1501 1497 1494 1490 1486 1483 1480 1475 1471 1467 1461 1456 1451 1446 1441 1435 1429 1423 1417 1413 1409 1404 1397 1393 1389 1385 1380 1373 1367 1363 1361 1358 1354 1350 1348 1346 1345 1343 1343 1343 1343 1342 1342 1343 1344 1346 1348
1547 1547 1547 1547 1547 1546 1546 1545 1545 1544 1542 1541 1539 1538 1537 1535 1533 1531 1528 1526 1523 1521 1518 1515 1512 1509 1505 1502 1498 1494 1491 1487 1484 1481 1477 1473 1469 1464 1460 1455 1450 1445 1439 1433 1428 1422 1417 1412 1406 1398 1393 1389 1386 1382 1377 1372 1369 1365 1361 1358 1356 1353 1351 1349 1348 1347 1346 1345 1345 1344 1345 1346 1348 1350
1545 1545 1545 1545 1545 1545 1544 1544 1543 1543 1541 1540 1539 1537 1536 1534 1532 1530 1528 1525 1523 1520 1518 1515 1512 1509 1506 1502 1499 1496 1492 1488 1485 1481 1478 1474 1470 1466 1463 1459 1454 1449 1444 1438 1433 1428 1423 1417 1411 1404 1398 1392 1387 1384 1382 1380 1377 1372 1367 1364 1362 1359 1357 1355 1353 1351 1349 1348 1348 1347 1347 1349 1350 1352
1543 1543 1543 1543 1543 1543 1543 1542 1542 1541 1540 1539 1538 1536 1535 1533 1532 1530 1527 1525 1523 1520 1518 1515 1512 1509 1506 1503 1500 1497 1493 1489 1486 1482 1479 1476 1472 1468 1465 1461 1457 1453 1448 1443 1438 1433 1428 1423 1417 1411 1406 1401 1396 1393 1392 1389 1383 1378 1374 1372 1369 1366 1363 1360 1358 1354 1352 1351 1351 1350 1351 1351 1352 1353
1542 1542 1542 1541 1541 1541 1541 1540 1540 1539 1539 1538 1537 1535 1534 1532 1531 1529 1527 1525 1522 1520 1518 1515 1512 1509 1506 1503 1500 1497 1494 1490 1487 1484 1480 1477 1474 1470 1467 1463 1459 1456 1451 1447 1443 1437 1433 1428 1422 1417 1413 1410 1406 1403 1400 1394 1388 1384 1382 1379 1376 1372 1369 1365 1362 1359 1357 1355 1354 1354 1354 1354 1355 1356
1540 1540 1540 1539 1539 1539 1539 1538 1538 1538 1537 1536 1535 1534 1532 1531 1530 1528 1526 1524 1522 1520 1517 1515 1512 1509 1506 1503 1500 1497 1494 1491 1488 1485 1482 1479 1475 1472 1469 1466 1462 1458 1455 1450 1446 1441 1437 1433 1428 1423 1420 1418 1415 1412 1408 1404 1400 1396 1392 1387 1383 1378 1374 1370 1367 1366 1363 1360 1359 1359 1358 1358 1358 1359
1539 1538 1538 1537 1537 1537 1537 1536 1536 1536 1535 1535 1534 1533 1531 1530 1528 1527 1525 1523 1521 1519 1517 1515 1512 1509 1507 1504 1501 1498 1495 1492 1489 1486 1483 1480 1477 1474 1472 1468 1465 1461 1457 1453 1449 1445 1441 1437 1433 1429 1426 1424 1422 1420 1416 1412 1407 1403 1398 1394 1390 1386 1383 1378 1375 1372 1370 1367 1365 1364 1362 1362 1362 1363
1537 1536 1536 1535 1535 1535 1535 1534 1534 1534 1533 1533 1532 1531 1530 1529 1527 1526 1524 1522 1520 1518 1516 1514 1512 1509 1506 1504 1501 1498 1495 1493 1490 1487 1485 1482 1479 1476 1473 1470 1467 1464 1460 1457 1453 1449 1446 1443 1440 1437 1433 1430 1427 1423 1418 1413 1409 1406 1403 1400 1396 1393 1390 1386 1382 1379 1377 1374 1371 1368 1367 1367 1367 1367
1535 1534 1534 1534 1533 1533 1533 1532 1532 1532 1531 1531 1530 1529 1528 1527 1526 1524 1523 1521 1519 1517 1516 1513 1511 1509 1506 1504 1501 1498 1496 1493 1490 1488 1485 1483 1480 1477 1475 1472 1469 1466 1463 1460 1457 1454 1452 1449 1445 1441 1437 1433 1428 1423 1419 1416 1414 1411 1409 1406 1403 1399 1396 1392 1388 1385 1382 1379 1376 1374 1373 1373 1371 1370
1532 1532 1532 1532 1531 1531 1531 1530 1530 1529 1529 1528 1528 1527 1526 1525 1524 1523 1521 1520 1518 1517 1515 1513 1511 1509 1506 1504 1501 1499 1496 1494 1491 1488 1486 1484 1481 1478 1476 1474 1471 1468 1466 1464 1461 1458 1455 1452 1448 1444 1440 1435 1431 1428 1425 1422 1420 1417 1415 1412 1408 1405 1402 1398 1395 1391 1388 1385 1383 1381 1381 1379 1376 1376
1530 1530 1530 1530 1529 1529 1529 1528 1527 1527 1526 1526 1526 1525 1525 1524 1523 1521 1520 1518 1517 1515 1514 1512 1510 1508 1506 1504 1501 1499 1496 1494 1491 1489 1486 1484 1482 1480 1477 1475 1473 1470 1468 1465 1463 1460 1457 1454 1451 1447 1442 1439 1436 1433 1430 1427 1425 1422 1420 1417 1413 1410 1407 1404 1401 1397 1393 1391 1390 1390 1388 1386 1385 1385
1527 1527 1527 1527 1527 1527 1526 1526 1525 1524 1524 1524 1523 1523 1522 1522 1521 1519 1518 1517 1515 1514 1512 1511 1509 1507 1505 1503 1501 1499 1496 1494 1492 1489 1487 1485 1483 1481 1478 1476 1474 1471 1469 1466 1463 1461 1459 1456 1453 1450 1447 1444 1441 1438 1435 1432 1429 1427 1424 1421 1418 1415 1412 1410 1407 1404 1400 1398 1399 1399 1397 1395 1394 1394